EA1HTW-1 Weather Reports


Display with metric or nautical units.
time (UTC)temp
F
wind
direction
speed
MPH
gust
MPH
rain 1hr
in
rain 24hr
in
rain mn
in
humidity
%
barometer
mb
20260503182923 53 330 0.0 1.0 0.15 0.59 0.41 91 985.4
20260503181921 53 315 0.0 0.0 0.11 0.54 0.37 90 985.5
20260503180924 53 0 2.0 3.0 0.05 0.48 0.31 89 985.4
20260503175954 53 68 1.0 2.0 0.00 0.44 0.26 89 985.4
20260503175923 53 68 1.0 2.0 0.00 0.44 0.26 89 985.4
20260503174922 53 176 0.0 2.0 0.00 0.44 0.26 88 985.3
20260503172923 54 172 2.0 5.0 0.00 0.44 0.26 85 985.1
20260503171922 57 114 1.0 2.0 0.00 0.44 0.26 86 984.8
20260503170923 56 37 0.0 1.0 0.00 0.44 0.26 84 984.7
20260503150922 58 188 0.0 0.0 0.00 0.54 0.24 80 984.9
20260503130923 59 178 1.0 2.0 0.00 0.54 0.24 82 984.7
20260503072921 53 159 0.0 1.0 0.00 0.33 0.02 96 984.9
20260503071921 53 134 0.0 1.0 0.00 0.33 0.02 96 985.0
20260503054923 53 0 0.0 0.0 0.02 0.33 0.02 96 984.6
20260503053922 52 0 0.0 0.0 0.02 0.33 0.02 96 984.6
20260503052919 52 22 0.0 0.0 0.02 0.33 0.02 96 984.5
20260503051922 52 22 0.0 0.0 0.02 0.33 0.02 96 984.5
20260503050923 52 22 0.0 0.0 0.00 0.31 0.00 96 984.5
20260503045921 52 22 0.0 0.0 0.00 0.31 0.00 96 984.5
20260503044922 52 22 0.0 0.0 0.00 0.31 0.00 96 984.5
20260503043305 52 22 0.0 0.0 0.00 0.31 0.00 96 984.5
20260503042922 52 22 0.0 0.0 0.00 0.31 0.00 96 984.5
20260503041922 52 22 0.0 0.0 0.00 0.31 0.00 96 984.6
20260503035921 52 22 0.0 0.0 0.00 0.31 0.00 96 984.7
20260503034923 52 0 0.0 0.0 0.00 0.31 0.00 96 984.8
20260503031921 53 338 0.0 0.0 0.00 0.31 0.00 96 984.9
20260503030922 53 338 0.0 0.0 0.00 0.31 0.00 96 984.8
20260503025920 53 338 0.0 0.0 0.00 0.31 0.00 96 985.0
20260503024921 53 22 0.0 0.0 0.00 0.31 0.00 96 985.0
20260503022920 53 22 0.0 0.0 0.00 0.31 0.00 95 985.1
20260503015920 53 0 0.0 0.0 0.00 0.31 0.00 95 985.2
20260503014921 53 0 0.0 0.0 0.00 0.31 0.00 95 985.0
20260503013921 53 349 0.0 0.0 0.00 0.31 0.00 95 985.1
20260503012918 53 0 0.0 0.0 0.00 0.31 0.00 95 985.3
20260503011921 53 338 0.0 0.0 0.00 0.31 0.00 95 985.5
20260503005920 53 0 0.0 0.0 0.00 0.31 0.00 95 985.7
20260503004920 53 0 0.0 0.0 0.00 0.31 0.00 95 985.8
20260503002918 53 0 0.0 0.0 0.00 0.31 0.00 95 985.9
20260502235919 53 338 0.0 0.0 0.00 0.31 0.00 95 986.3
20260502234920 53 338 0.0 0.0 0.00 0.31 0.00 95 986.2
20260502233922 53 338 0.0 0.0 0.00 0.31 0.00 94 986.3
20260502231920 53 0 0.0 0.0 0.00 0.31 0.00 94 986.2
20260502230922 53 0 0.0 0.0 0.00 0.31 0.00 94 986.3
20260502223925 53 350 0.0 1.0 0.00 0.31 0.00 94 986.3
20260502221924 53 0 0.0 0.0 0.00 0.31 0.00 94 986.5
20260502220925 54 338 1.0 1.0 0.00 0.31 0.00 93 986.6
20260502215927 54 0 0.0 0.0 0.00 0.31 0.31 93 986.6
20260502212925 55 338 0.0 0.0 0.01 0.31 0.31 93 986.6
20260502211925 55 0 0.0 1.0 0.01 0.31 0.31 93 986.7
20260502210925 55 0 0.0 0.0 0.02 0.31 0.31 93 986.6
20260502205926 55 338 0.0 0.0 0.05 0.31 0.31 93 986.7
20260502204925 55 112 0.0 1.0 0.06 0.31 0.31 93 986.4
20260502202925 55 338 0.0 0.0 0.06 0.30 0.30 93 986.2
20260502201926 55 338 0.0 1.0 0.07 0.30 0.30 93 986.1
20260502195928 56 0 0.0 0.0 0.11 0.26 0.26 92 985.9
20260502193925 56 239 0.0 0.0 0.11 0.24 0.24 91 986.0
20260502192926 56 338 0.0 0.0 0.11 0.24 0.24 91 986.0
20260502191925 57 216 0.0 0.0 0.09 0.22 0.22 89 985.7
20260502190923 56 338 0.0 1.0 0.06 0.19 0.19 88 985.9
20260502185926 57 68 2.0 3.0 0.02 0.15 0.15 87 986.0